CW0630 Weather Reports


Display with metric or nautical units.
time (UTC)temp
F
wind
direction
speed
MPH
gust
MPH
rain 1hr
in
rain 24hr
in
rain mn
in
humidity
%
barometer
mb
20210805211028 85 163 0.0 0.0 0.00 0.00 0.00 53 1019.9
20210805201029 85 288 1.0 1.0 0.00 0.00 0.00 51 1020.3
20210805191023 85 79 4.0 4.0 0.00 0.00 0.00 48 1020.4
20210805181028 84 360 3.0 3.0 0.00 0.00 0.00 50 1021.0
20210805171021 82 325 2.0 4.0 0.00 0.00 0.00 52 1021.5
20210805161017 81 63 2.0 3.0 0.00 0.00 0.00 55 1022.3
20210805151028 80 71 0.0 3.0 0.00 0.00 0.00 57 1022.2
20210805141032 78 355 2.0 2.0 0.00 0.00 0.00 61 1021.9
20210805131032 73 325 0.0 1.0 0.00 0.00 0.00 76 1021.8
20210805121026 63 197 0.0 2.0 0.00 0.00 0.00 93 1021.4
20210805111017 60 333 0.0 0.0 0.00 0.00 0.00 95 1020.8
20210805101018 60 333 0.0 0.0 0.00 0.00 0.00 94 1020.3
20210805091020 61 333 0.0 0.0 0.00 0.00 0.00 94 1019.9
20210805081032 60 336 1.0 1.0 0.00 0.00 0.00 93 1019.7
20210805071020 62 343 1.0 1.0 0.00 0.00 0.00 93 1019.4
20210805061016 62 318 0.0 0.0 0.00 0.00 0.00 93 1019.9
20210805051012 63 318 0.0 0.0 0.00 0.00 0.00 91 1020.0
20210805041020 64 346 0.0 0.0 0.00 0.00 0.00 89 1020.2
20210805031024 65 61 0.0 1.0 0.00 0.00 0.00 87 1020.0
20210805021028 67 61 0.0 0.0 0.00 0.00 0.00 81 1020.3
20210805011015 70 61 0.0 0.0 0.00 0.00 0.00 75 1019.6
20210805001027 73 49 3.0 3.0 0.00 0.00 0.00 67 1019.3
20210804231017 76 78 3.0 3.0 0.00 0.00 0.00 62 1018.9
20210804221024 78 333 6.0 6.0 0.00 0.00 0.00 63 1018.8